Time,TemperatureF,DewpointF,PressureIn,WindDirection,WindDirectionDegrees,WindSpeedMPH,WindSpeedGustMPH,Humidity,HourlyPrecipIn,Conditions,Clouds,dailyrainin,SolarRadiationWatts/m^2,SoftwareType,DateUTC
2013-09-04 00:01:00,57.0,56.0,-100.00,West,266,5.0,11.0,98,0.00,,,0.21,0.000000,,2013-09-04 07:01:00,
2013-09-04 00:22:00,57.0,56.0,-100.00,West,266,5.0,11.0,98,0.00,,,0.21,0.000000,,2013-09-04 07:22:00,
2013-09-04 00:32:00,57.0,56.0,-100.00,West,266,5.0,11.0,98,0.00,,,0.21,0.000000,,2013-09-04 07:32:00,
2013-09-04 00:42:00,57.0,56.0,-100.00,West,266,5.0,11.0,98,0.00,,,0.21,0.000000,,2013-09-04 07:42:00,
2013-09-04 00:52:00,57.0,56.0,-100.00,West,266,5.0,11.0,98,0.00,,,0.21,0.000000,,2013-09-04 07:52:00,
2013-09-04 01:01:00,55.0,54.0,-100.00,NE,47,4.0,11.0,97,0.00,,,0.21,0.000000,,2013-09-04 08:01:00,
2013-09-04 01:22:00,55.0,54.0,-100.00,NE,47,4.0,11.0,97,0.00,,,0.21,0.000000,,2013-09-04 08:22:00,
2013-09-04 01:32:00,55.0,54.0,-100.00,NE,47,4.0,11.0,97,0.00,,,0.21,0.000000,,2013-09-04 08:32:00,
2013-09-04 01:43:00,55.0,54.0,-100.00,NE,47,4.0,11.0,97,0.00,,,0.21,0.000000,,2013-09-04 08:43:00,
2013-09-04 01:52:00,55.0,54.0,-100.00,NE,47,4.0,11.0,97,0.00,,,0.21,0.000000,,2013-09-04 08:52:00,
2013-09-04 02:01:00,56.0,55.0,-100.00,NNE,20,3.0,9.0,97,0.00,,,0.21,0.000000,,2013-09-04 09:01:00,
2013-09-04 02:22:00,56.0,55.0,-100.00,NNE,20,3.0,9.0,97,0.00,,,0.21,0.000000,,2013-09-04 09:22:00,
2013-09-04 02:33:00,56.0,55.0,-100.00,NNE,20,3.0,9.0,97,0.00,,,0.21,0.000000,,2013-09-04 09:33:00,
2013-09-04 02:43:00,56.0,55.0,-100.00,NNE,20,3.0,9.0,97,0.00,,,0.21,0.000000,,2013-09-04 09:43:00,
2013-09-04 02:53:00,56.0,55.0,-100.00,NNE,20,3.0,9.0,97,0.00,,,0.21,0.000000,,2013-09-04 09:53:00,
2013-09-04 03:01:00,54.0,53.0,-100.00,NNE,33,4.0,9.0,98,0.00,,,0.21,0.000000,,2013-09-04 10:01:00,
2013-09-04 03:23:00,54.0,53.0,-100.00,NNE,33,4.0,9.0,98,0.00,,,0.21,0.000000,,2013-09-04 10:23:00,
2013-09-04 03:33:00,54.0,53.0,-100.00,NNE,33,4.0,9.0,98,0.00,,,0.21,0.000000,,2013-09-04 10:33:00,
2013-09-04 03:42:00,54.0,53.0,-100.00,NNE,33,4.0,9.0,98,0.00,,,0.21,0.000000,,2013-09-04 10:42:00,
2013-09-04 03:52:00,54.0,53.0,-100.00,NNE,33,4.0,9.0,98,0.00,,,0.21,0.000000,,2013-09-04 10:52:00,
2013-09-04 04:01:00,54.0,53.0,-100.00,NE,35,6.0,13.0,98,0.00,,,-99.99,0.000000,,2013-09-04 11:01:00,
2013-09-04 04:22:00,54.0,53.0,-100.00,NE,35,6.0,13.0,98,0.00,,,-99.99,0.000000,,2013-09-04 11:22:00,
2013-09-04 04:33:00,54.0,53.0,-100.00,NE,35,6.0,13.0,98,0.00,,,-99.99,0.000000,,2013-09-04 11:33:00,
2013-09-04 04:42:00,54.0,53.0,-100.00,NE,35,6.0,13.0,98,0.00,,,-99.99,0.000000,,2013-09-04 11:42:00,
2013-09-04 04:52:00,54.0,53.0,-100.00,NE,35,6.0,13.0,98,0.00,,,-99.99,0.000000,,2013-09-04 11:52:00,
2013-09-04 05:01:00,53.0,52.0,-100.00,WNW,288,6.0,16.0,98,0.00,,,0.07,0.000000,,2013-09-04 12:01:00,
2013-09-04 05:21:00,53.0,52.0,-100.00,WNW,288,6.0,16.0,98,0.00,,,0.07,0.000000,,2013-09-04 12:21:00,
2013-09-04 05:32:00,53.0,52.0,-100.00,WNW,288,6.0,16.0,98,0.00,,,0.07,0.000000,,2013-09-04 12:32:00,
2013-09-04 05:42:00,53.0,52.0,-100.00,WNW,288,6.0,16.0,98,0.00,,,0.07,0.000000,,2013-09-04 12:42:00,
2013-09-04 05:52:00,53.0,52.0,-100.00,WNW,288,6.0,16.0,98,0.00,,,0.07,0.000000,,2013-09-04 12:52:00,
2013-09-04 06:01:00,54.0,53.0,-100.00,NE,36,7.0,16.0,95,0.00,,,0.01,0.000000,,2013-09-04 13:01:00,
2013-09-04 06:42:00,54.0,53.0,-100.00,NE,36,7.0,16.0,95,0.00,,,0.01,0.000000,,2013-09-04 13:42:00,
2013-09-04 06:52:00,54.0,53.0,-100.00,NE,36,7.0,16.0,95,0.00,,,0.01,0.000000,,2013-09-04 13:52:00,
2013-09-04 07:01:00,55.0,55.0,-100.00,NE,39,5.0,14.0,100,0.00,,,0.00,0.000000,,2013-09-04 14:01:00,
2013-09-04 07:21:00,55.0,55.0,-100.00,NE,39,5.0,14.0,100,0.00,,,0.00,0.000000,,2013-09-04 14:21:00,
2013-09-04 07:32:00,55.0,55.0,-100.00,NE,39,5.0,14.0,100,0.00,,,0.00,0.000000,,2013-09-04 14:32:00,
2013-09-04 07:42:00,55.0,55.0,-100.00,NE,39,5.0,14.0,100,0.00,,,0.00,0.000000,,2013-09-04 14:42:00,
2013-09-04 07:52:00,55.0,55.0,-100.00,NE,39,5.0,14.0,100,0.00,,,0.00,0.000000,,2013-09-04 14:52:00,
2013-09-04 08:01:00,55.0,55.0,-100.00,NNE,27,3.0,11.0,100,0.00,,,0.00,4.000000,,2013-09-04 15:01:00,
2013-09-04 08:43:00,55.0,55.0,-100.00,NNE,27,3.0,11.0,100,0.00,,,0.00,4.000000,,2013-09-04 15:43:00,
2013-09-04 08:53:00,55.0,55.0,-100.00,NNE,27,3.0,11.0,100,0.00,,,0.00,4.000000,,2013-09-04 15:53:00,
2013-09-04 09:01:00,56.0,56.0,-100.00,NE,35,4.0,8.0,100,0.00,,,0.00,43.000000,,2013-09-04 16:01:00,
2013-09-04 09:43:00,56.0,56.0,-100.00,NE,35,4.0,8.0,100,0.00,,,0.00,43.000000,,2013-09-04 16:43:00,
2013-09-04 09:53:00,56.0,56.0,-100.00,NE,35,4.0,8.0,100,0.00,,,0.00,43.000000,,2013-09-04 16:53:00,
2013-09-04 10:01:00,56.0,56.0,-100.00,NNE,14,3.0,10.0,100,0.00,,,0.00,97.000000,,2013-09-04 17:01:00,
2013-09-04 10:42:00,56.0,56.0,-100.00,NNE,14,3.0,10.0,100,0.00,,,0.00,97.000000,,2013-09-04 17:42:00,
2013-09-04 10:52:00,56.0,56.0,-100.00,NNE,14,3.0,10.0,100,0.00,,,0.00,97.000000,,2013-09-04 17:52:00,
2013-09-04 11:01:00,58.0,57.0,-100.00,North,9,5.0,7.0,98,0.00,,,0.00,239.000000,,2013-09-04 18:01:00,
2013-09-04 11:42:00,58.0,57.0,-100.00,North,9,5.0,7.0,98,0.00,,,0.00,239.000000,,2013-09-04 18:42:00,
2013-09-04 11:52:00,58.0,57.0,-100.00,North,9,5.0,7.0,98,0.00,,,0.00,239.000000,,2013-09-04 18:52:00,
2013-09-04 12:01:00,59.0,58.0,-100.00,NNE,21,2.0,9.0,96,0.00,,,0.00,262.000000,,2013-09-04 19:01:00,
2013-09-04 12:22:00,59.0,58.0,-100.00,NNE,21,2.0,9.0,96,0.00,,,0.00,262.000000,,2013-09-04 19:22:00,
2013-09-04 12:32:00,59.0,58.0,-100.00,NNE,21,2.0,9.0,96,0.00,,,0.00,262.000000,,2013-09-04 19:32:00,
2013-09-04 12:42:00,59.0,58.0,-100.00,NNE,21,2.0,9.0,96,0.00,,,0.00,262.000000,,2013-09-04 19:42:00,
2013-09-04 12:52:00,59.0,58.0,-100.00,NNE,21,2.0,9.0,96,0.00,,,0.00,262.000000,,2013-09-04 19:52:00,
2013-09-04 13:01:00,59.0,56.0,-100.00,WNW,303,4.0,8.0,89,0.00,,,0.00,424.000000,,2013-09-04 20:01:00,
2013-09-04 13:43:00,59.0,56.0,-100.00,WNW,303,4.0,8.0,89,0.00,,,0.00,424.000000,,2013-09-04 20:43:00,
2013-09-04 13:53:00,59.0,56.0,-100.00,WNW,303,4.0,8.0,89,0.00,,,0.00,424.000000,,2013-09-04 20:53:00,
2013-09-04 14:01:00,59.0,59.0,-100.00,NE,37,5.0,13.0,99,0.00,,,0.00,242.000000,,2013-09-04 21:01:00,
2013-09-04 14:44:00,59.0,59.0,-100.00,NE,37,5.0,13.0,99,0.00,,,0.00,242.000000,,2013-09-04 21:44:00,
2013-09-04 14:54:00,59.0,59.0,-100.00,NE,37,5.0,13.0,99,0.00,,,0.00,242.000000,,2013-09-04 21:54:00,
2013-09-04 15:01:00,60.0,58.0,-100.00,NE,44,6.0,14.0,94,0.00,,,0.00,244.000000,,2013-09-04 22:01:00,
2013-09-04 15:23:00,60.0,58.0,-100.00,NE,44,6.0,14.0,94,0.00,,,0.00,244.000000,,2013-09-04 22:23:00,
2013-09-04 15:33:00,60.0,58.0,-100.00,NE,44,6.0,14.0,94,0.00,,,0.00,244.000000,,2013-09-04 22:33:00,
2013-09-04 15:43:00,60.0,58.0,-100.00,NE,44,6.0,14.0,94,0.00,,,0.00,244.000000,,2013-09-04 22:43:00,
2013-09-04 15:54:00,60.0,58.0,-100.00,NE,44,6.0,14.0,94,0.00,,,0.00,244.000000,,2013-09-04 22:54:00,
2013-09-04 16:01:00,62.0,57.0,-100.00,NNE,20,1.0,12.0,84,0.00,,,0.00,213.000000,,2013-09-04 23:01:00,
2013-09-04 16:22:00,62.0,57.0,-100.00,NNE,20,1.0,12.0,84,0.00,,,0.00,213.000000,,2013-09-04 23:22:00,
2013-09-04 16:34:00,62.0,57.0,-100.00,NNE,20,1.0,12.0,84,0.00,,,0.00,213.000000,,2013-09-04 23:34:00,
2013-09-04 16:42:00,62.0,57.0,-100.00,NNE,20,1.0,12.0,84,0.00,,,0.00,213.000000,,2013-09-04 23:42:00,
2013-09-04 16:52:00,62.0,57.0,-100.00,NNE,20,1.0,12.0,84,0.00,,,0.00,213.000000,,2013-09-04 23:52:00,
2013-09-04 17:01:00,63.0,57.0,-100.00,NNW,333,2.0,8.0,80,0.00,,,0.00,362.000000,,2013-09-05 00:01:00,
2013-09-04 17:22:00,63.0,57.0,-100.00,NNW,333,2.0,8.0,80,0.00,,,0.00,362.000000,,2013-09-05 00:22:00,
2013-09-04 17:32:00,63.0,57.0,-100.00,NNW,333,2.0,8.0,80,0.00,,,0.00,362.000000,,2013-09-05 00:32:00,
2013-09-04 17:43:00,63.0,57.0,-100.00,NNW,333,2.0,8.0,80,0.00,,,0.00,362.000000,,2013-09-05 00:43:00,
2013-09-04 17:52:00,63.0,57.0,-100.00,NNW,333,2.0,8.0,80,0.00,,,0.00,362.000000,,2013-09-05 00:52:00,
2013-09-04 18:01:00,63.0,58.0,-100.00,North,351,4.0,8.0,85,0.00,,,0.00,318.000000,,2013-09-05 01:01:00,
2013-09-04 18:42:00,63.0,58.0,-100.00,North,351,4.0,8.0,85,0.00,,,0.00,318.000000,,2013-09-05 01:42:00,
2013-09-04 18:52:00,63.0,58.0,-100.00,North,351,4.0,8.0,85,0.00,,,0.00,318.000000,,2013-09-05 01:52:00,
2013-09-04 19:01:00,61.0,58.0,-100.00,NNE,19,4.0,7.0,89,0.00,,,0.00,202.000000,,2013-09-05 02:01:00,
2013-09-04 19:22:00,61.0,58.0,-100.00,NNE,19,4.0,7.0,89,0.00,,,0.00,202.000000,,2013-09-05 02:22:00,
2013-09-04 19:32:00,61.0,58.0,-100.00,NNE,19,4.0,7.0,89,0.00,,,0.00,202.000000,,2013-09-05 02:32:00,
2013-09-04 19:42:00,61.0,58.0,-100.00,NNE,19,4.0,7.0,89,0.00,,,0.00,202.000000,,2013-09-05 02:42:00,
2013-09-04 19:52:00,61.0,58.0,-100.00,NNE,19,4.0,7.0,89,0.00,,,0.00,202.000000,,2013-09-05 02:52:00,
2013-09-04 20:01:00,61.0,58.0,-100.00,NE,42,3.0,10.0,91,0.00,,,0.00,130.000000,,2013-09-05 03:01:00,
2013-09-04 20:22:00,61.0,58.0,-100.00,NE,42,3.0,10.0,91,0.00,,,0.00,130.000000,,2013-09-05 03:22:00,
2013-09-04 20:34:00,61.0,58.0,-100.00,NE,42,3.0,10.0,91,0.00,,,0.00,130.000000,,2013-09-05 03:34:00,
2013-09-04 20:45:00,61.0,58.0,-100.00,NE,42,3.0,10.0,91,0.00,,,0.00,130.000000,,2013-09-05 03:45:00,
2013-09-04 20:54:00,61.0,58.0,-100.00,NE,42,3.0,10.0,91,0.00,,,0.00,130.000000,,2013-09-05 03:54:00,
2013-09-04 21:01:00,58.0,57.0,-100.00,NNE,26,4.0,10.0,95,0.00,,,0.00,35.000000,,2013-09-05 04:01:00,
2013-09-04 21:44:00,58.0,57.0,-100.00,NNE,26,4.0,10.0,95,0.00,,,0.00,35.000000,,2013-09-05 04:44:00,
2013-09-04 21:53:00,58.0,57.0,-100.00,NNE,26,4.0,10.0,95,0.00,,,0.00,35.000000,,2013-09-05 04:53:00,
2013-09-04 22:01:00,58.0,58.0,-100.00,North,9,7.0,13.0,100,0.00,,,0.00,0.000000,,2013-09-05 05:01:00,
2013-09-04 22:23:00,58.0,58.0,-100.00,North,9,7.0,13.0,100,0.00,,,0.00,0.000000,,2013-09-05 05:23:00,
2013-09-04 22:34:00,58.0,58.0,-100.00,North,9,7.0,13.0,100,0.00,,,0.00,0.000000,,2013-09-05 05:34:00,
2013-09-04 22:43:00,58.0,58.0,-100.00,North,9,7.0,13.0,100,0.00,,,0.00,0.000000,,2013-09-05 05:43:00,
2013-09-04 22:52:00,58.0,58.0,-100.00,North,9,7.0,13.0,100,0.00,,,0.00,0.000000,,2013-09-05 05:52:00,
2013-09-04 23:01:00,58.0,58.0,-100.00,WNW,286,5.0,13.0,100,0.00,,,0.00,0.000000,,2013-09-05 06:01:00,
2013-09-04 23:42:00,58.0,58.0,-100.00,WNW,286,5.0,13.0,100,0.00,,,0.00,0.000000,,2013-09-05 06:42:00,
2013-09-04 23:52:00,58.0,58.0,-100.00,WNW,286,5.0,13.0,100,0.00,,,0.00,0.000000,,2013-09-05 06:52:00,